Location: 22
(39.7117°N, 89.5929°W)
Time: 16:08:44
(UTC-05:00)

Tiros 1 despin weight - Pass Details

Date: 12 August 2024
Orbit: 573 x 617 km, 48.2° (Epoch: 17 September)

Event Time Altitude Azimuth Distance (km) Brightness Sun altitude
Rises 21:34:53 0° 301° (WNW) 2,787 ? -17.3°
Reaches altitude 10° 21:37:16 10° 309° (NW) 1,882 ? -17.6°
Maximum altitude 21:41:21 42° 21° (NNE) 823 ? -18.3°
Enters shadow 21:43:12 27° 74° (ENE) 1,124 ? -18.5°
